Regional Weather Roundup
Issued by NWS

Home | Current Version | Previous Version | Graphics & Text | Print | Product List | Glossary On
Versions: 1 2 3 4 5 6 7 8 9 10 11 12 13 14 15 16 17 18 19 20 21 22 23 24 25 26 27 28 29 30 31 32 33 34 35 36 37 38 39 40 41 42 43 44 45 46 47 48 49 50
000
ASUS43 KBIS 270602
RWRND

NORTH DAKOTA REGIONAL WEATHER ROUNDUP
NATIONAL WEATHER SERVICE BISMARCK ND
100 AM CDT THU APR 27 2017

NOTE: "FAIR" INDICATES FEW OR NO CLOUDS BELOW 12,000 FEET WITH NO
SIGNIFICANT WEATHER AND/OR OBSTRUCTIONS TO VISIBILITY.


NDZ001>003-009>011-017-270700-
NORTHWEST NORTH DAKOTA

CITY           SKY/WX    TMP DP  RH WIND       PRES   REMARKS
WILLISTON      FAIR      33  23  66 N7        29.76F
6HR MIN TEMP:  33; 6HR MAX TEMP:  51;

MINOT          FAIR      27  23  85 NW3       29.79S
MINOT AFB      CLEAR     31  24  75 NE5       29.79S
$$

NDZ018>021-031>035-040>046-270700-
SOUTHWEST NORTH DAKOTA

CITY           SKY/WX    TMP DP  RH WIND       PRES   REMARKS
BISMARCK       CLOUDY    36  28  73 N5        29.77F
6HR MIN TEMP:  36; 6HR MAX TEMP:  44;

DICKINSON      FAIR      26  21  81 SE8       29.72S WCI  18
GARRISON         N/A     28  25  88 NE5       29.77S
6HR MIN TEMP:  27; 6HR MAX TEMP:  47;

HETTINGER ARPT CLEAR     28  23  81 E8        29.73F WCI  20
$$

NDZ004>008-012>016-024-026-027-054-270700-
NORTHEAST NORTH DAKOTA

CITY           SKY/WX    TMP DP  RH WIND       PRES   REMARKS
GRAND FORKS    LGT SNOW  31  29  92 N17       29.75F FOG     WCI  19
GRND FRKS AFB  MIX PCPN  29  28  96 NE16      29.75F FOG     WCI  17
DEVILS LAKE    CLOUDY    31  27  85 CALM      29.76F
$$

NDZ022-023-025-028>030-036>039-047>053-270700-
SOUTHEAST NORTH DAKOTA

CITY           SKY/WX    TMP DP  RH WIND       PRES   REMARKS
FARGO          FLURRIES  28  26  92 N15       29.71R WCI  16
6HR MIN TEMP:  28; 6HR MAX TEMP:  30; 6HR PCP:  0.06;

JAMESTOWN      CLOUDY    29  25  85 N10       29.73F WCI  20
$$





USA.gov is the U.S. government's official web portal to all federal, state and local government web resources and services.